Find Starlink 4439

NORAD ID: 53498 Int'l Des: 2022-099 Owner: SPXS Country: US Constellation: starlink operational
LEOCIRCULARRETROGRADESSO

現在のビュー

3D地球を読み込み中...

About Starlink 4439

Starlink 4439 (NORAD 53498) is a starlink constellation satellite (v1.5) launched Aug 12, 2022 by SPXS of US. It operates in LEO, CIRCULAR, RETROGRADE, SSO orbit with a mass of 300.00 kg.

Starlink 4439について

説明を読み込み中...

次回通過

Passes for default location (London). Set your location on the main map for personalized predictions.

高度履歴

Loading altitude history...

軌道要素

1 53498U 22099AK 26195.16668980 .00067619 00000-0 32268-2 0 9990
2 53498 97.2880 313.8741 0001202 107.4031 287.3499 15.18792988 5828
Epoch: Jul 14, 2026 • Age: 10 hours

現在のステータス

高度 517.7 km
遠地点 / 近地点 N/A
速度 7.61 km/s
衛星直下点 53.81°N, 168.21°E
打ち上げ日 Aug 12, 2022
運用期間 3.9 years
タイプ internet

技術仕様

分類 Payload
質量 300.00 kg
乾燥質量 275.00 kg
総質量 300.00 kg
長さ 0.20 m
直径 2.80 m
スパン 9.00 m
形状 Box + pan
製造者 SPXS
バスタイプ Starlink
フェーズステータス In Orbit
所有者/国 SPXS/US

Most Searched